Ravenna, OH

3:32 PM EDT on April 27, 2017 (GMT -0400)
Ravenna

Weather History for KPOV - November, 2012

Change the Weather History Date:

Thursday, November 29, 2012

  Actual Average (KCAK) Record (KCAK)
Temperature  
Mean Temperature 35 °F -  
Max Temperature 44 °F 40 °F 67 °F (2005)
Min Temperature 26 °F 29 °F 3 °F (1976)
Degree Days  
Heating Degree Days 30    
Moisture  
Dew Point 22 °F    
Average Humidity 66    
Maximum Humidity 90    
Minimum Humidity 33    
Precipitation  
Precipitation 0.00 in - - ()
Sea Level Pressure  
Sea Level Pressure 30.29 in    
Wind  
Wind Speed 3 mph (SW)    
Max Wind Speed 12 mph    
Max Gust Speed 18 mph    
Visibility 10 miles    
Events      
Averages and records for this station are not official NWS values.
T = Trace of Precipitation, MM = Missing Value Source: NWS Daily Summary

Daily Weather History Graph

Daily Weather History Graph

Search for Another Location

Airport or City:

Trip Planner

Search our weather history database for the weather conditions in past years. The results will help you decide how hot, cold, wet, or windy it might be!

Date:

Astronomy

Nov. 29, 2012 Rise Set
Actual Time 7:29 AM EST 4:57 PM EST
Civil Twilight 6:58 AM EST 5:27 PM EST
Nautical Twilight 6:24 AM EST 6:02 PM EST
Astronomical Twilight 5:51 AM EST 6:35 PM EST
Moon 5:58 PM EST (11/29) 8:15 AM EST (11/29)
Length of Visible Light 10h 28m
Length of Day
9h 27m
Full, 99% of the Moon is Illuminated
Nov 29
Full
Dec 6
Last Quarter
Dec 13
New
Dec 20
First Quarter
Dec 28
Full

Hourly Weather History & Observations

Time (EST) Temp. Windchill Dew Point Humidity Pressure Visibility Wind Dir Wind Speed Gust Speed Precip Events Conditions
12:15 AM 29.8 °F 26.3 °F 24.1 °F 79% 30.31 in 10.0 mi WSW 3.5 mph - N/A   Clear
12:35 AM 28.8 °F 25.0 °F 23.7 °F 81% 30.31 in 10.0 mi WSW 3.5 mph - N/A   Clear
12:54 AM 28.4 °F 24.6 °F 23.7 °F 83% 30.31 in 10.0 mi WSW 3.5 mph - N/A   Clear
1:15 AM 27.5 °F - 23.7 °F 86% 30.30 in 10.0 mi Calm Calm - N/A   Clear
1:35 AM 26.8 °F 22.8 °F 23.5 °F 88% 30.31 in 7.0 mi SW 3.5 mph - N/A   Clear
1:55 AM 26.6 °F 22.6 °F 24.1 °F 90% 30.31 in 7.0 mi SW 3.5 mph - N/A   Clear
2:15 AM 27.0 °F 23.0 °F 23.9 °F 88% 30.32 in 7.0 mi SW 3.5 mph - N/A   Clear
2:35 AM 27.5 °F 23.6 °F 23.7 °F 86% 30.31 in 10.0 mi SW 3.5 mph - N/A   Clear
2:54 AM 27.5 °F 22.2 °F 23.5 °F 85% 30.32 in 10.0 mi SW 4.6 mph - N/A   Clear
3:15 AM 28.0 °F 24.2 °F 23.2 °F 82% 30.32 in 10.0 mi SW 3.5 mph - N/A   Clear
3:35 AM 27.9 °F 24.0 °F 23.0 °F 82% 30.32 in 10.0 mi SW 3.5 mph - N/A   Clear
3:54 AM 27.0 °F - 22.8 °F 84% 30.32 in 10.0 mi Calm Calm - N/A   Clear
4:15 AM 27.3 °F 23.4 °F 23.0 °F 84% 30.32 in 10.0 mi SW 3.5 mph - N/A   Clear
4:35 AM 27.5 °F 23.6 °F 22.8 °F 83% 30.32 in 10.0 mi SW 3.5 mph - N/A   Clear
4:55 AM 27.3 °F 23.4 °F 23.4 °F 85% 30.32 in 10.0 mi SSW 3.5 mph - N/A   Clear
5:15 AM 27.9 °F 24.0 °F 23.0 °F 82% 30.33 in 10.0 mi SW 3.5 mph - N/A   Clear
5:35 AM 28.4 °F 23.3 °F 23.4 °F 81% 30.32 in 10.0 mi SW 4.6 mph - N/A   Clear
5:55 AM 28.4 °F 24.6 °F 23.4 °F 81% 30.33 in 10.0 mi SW 3.5 mph - N/A   Scattered Clouds
6:15 AM 28.4 °F 24.6 °F 23.0 °F 80% 30.33 in 10.0 mi SW 3.5 mph - N/A   Scattered Clouds
6:35 AM 28.0 °F - 23.0 °F 81% 30.34 in 10.0 mi Calm Calm - N/A   Clear
6:54 AM 28.0 °F - 23.0 °F 81% 30.34 in 10.0 mi Calm Calm - N/A   Clear
7:15 AM 27.5 °F 23.6 °F 23.2 °F 84% 30.34 in 10.0 mi SSW 3.5 mph - N/A   Clear
7:35 AM 27.1 °F - 23.0 °F 84% 30.34 in 10.0 mi Calm Calm - N/A   Clear
7:55 AM 27.3 °F 23.4 °F 22.5 °F 82% 30.34 in 10.0 mi SSW 3.5 mph - N/A   Clear
8:15 AM 28.8 °F 25.0 °F 23.0 °F 79% 30.33 in 10.0 mi SSW 3.5 mph - N/A   Clear
8:35 AM 29.7 °F 26.1 °F 23.2 °F 77% 30.33 in 10.0 mi SW 3.5 mph - N/A   Clear
8:55 AM 30.7 °F 27.3 °F 23.4 °F 74% 30.34 in 10.0 mi WSW 3.5 mph - N/A   Clear
9:15 AM 31.3 °F 27.9 °F 23.7 °F 74% 30.34 in 10.0 mi SSW 3.5 mph - N/A   Clear
9:35 AM 32.5 °F - 24.8 °F 73% 30.34 in 10.0 mi Calm Calm - N/A   Clear
9:55 AM 34.0 °F 29.8 °F 24.6 °F 69% 30.34 in 10.0 mi SW 4.6 mph - N/A   Clear
10:15 AM 35.6 °F 30.7 °F 24.6 °F 64% 30.33 in 10.0 mi SW 5.8 mph - N/A   Clear
10:35 AM 37.2 °F 32.6 °F 23.5 °F 58% 30.33 in 10.0 mi SW 5.8 mph - N/A   Clear
11:15 AM 40.3 °F 35.5 °F 22.3 °F 49% 30.33 in 10.0 mi WSW 6.9 mph - N/A   Clear
11:35 AM 41.2 °F 36.6 °F 21.2 °F 45% 30.31 in 10.0 mi SW 6.9 mph - N/A   Clear
11:55 AM 41.4 °F 35.2 °F 20.1 °F 43% 30.30 in 10.0 mi WSW 10.4 mph - N/A   Clear
12:15 PM 42.1 °F 37.1 °F 19.6 °F 41% 30.30 in 10.0 mi SSW 8.1 mph - N/A   Clear
12:35 PM 42.6 °F 37.8 °F 20.5 °F 41% 30.30 in 10.0 mi SW 8.1 mph - N/A   Clear
12:55 PM 43.5 °F 39.4 °F 20.1 °F 39% 30.28 in 10.0 mi WSW 6.9 mph - N/A   Clear
1:15 PM 43.9 °F 39.9 °F 19.2 °F 37% 30.28 in 10.0 mi SSW 6.9 mph - N/A   Clear
1:35 PM 43.9 °F 38.8 °F 18.3 °F 36% 30.27 in 10.0 mi SW 9.2 mph - N/A   Clear
1:55 PM 44.2 °F 41.0 °F 17.6 °F 34% 30.26 in 10.0 mi SSW 5.8 mph - N/A   Clear
2:14 PM 44.2 °F 40.3 °F 16.5 °F 33% 30.25 in 10.0 mi SW 6.9 mph - N/A   Clear
2:35 PM 44.6 °F 40.2 °F 17.6 °F 34% 30.25 in 10.0 mi SW 8.1 mph - N/A   Clear
2:55 PM 44.4 °F 40.0 °F 17.1 °F 33% 30.25 in 10.0 mi SSW 8.1 mph - N/A   Clear
3:15 PM 44.1 °F 40.8 °F 17.2 °F 34% 30.24 in 10.0 mi SW 5.8 mph - N/A   Clear
3:35 PM 44.1 °F 38.1 °F 17.8 °F 35% 30.24 in 10.0 mi SW 11.5 mph 18.4 mph N/A   Clear
3:55 PM 43.7 °F 40.3 °F 17.8 °F 35% 30.24 in 10.0 mi SW 5.8 mph - N/A   Clear
4:15 PM 43.0 °F 40.3 °F 19.6 °F 39% 30.25 in 10.0 mi South 4.6 mph - N/A   Clear
4:35 PM 42.1 °F 39.2 °F 20.1 °F 42% 30.24 in 10.0 mi SSW 4.6 mph - N/A   Clear
4:55 PM 41.2 °F - 19.9 °F 43% 30.24 in 10.0 mi Calm Calm - N/A   Clear
5:15 PM 39.9 °F - 20.1 °F 45% 30.23 in 10.0 mi Calm Calm - N/A   Clear
5:35 PM 39.7 °F - 20.3 °F 46% 30.24 in 10.0 mi Calm Calm - N/A   Clear
5:55 PM 37.2 °F - 20.8 °F 52% 30.24 in 10.0 mi Calm Calm - N/A   Clear
6:15 PM 37.4 °F - 20.3 °F 50% 30.24 in 10.0 mi Calm Calm - N/A   Clear
6:35 PM 35.8 °F - 21.4 °F 56% 30.25 in 10.0 mi Calm Calm - N/A   Clear
6:55 PM 36.5 °F - 20.8 °F 53% 30.25 in 10.0 mi Calm Calm - N/A   Clear
7:15 PM 34.7 °F - 21.0 °F 57% 30.25 in 10.0 mi Calm Calm - N/A   Clear
7:35 PM 33.4 °F - 21.0 °F 60% 30.25 in 10.0 mi Calm Calm - N/A   Clear
7:55 PM 32.4 °F - 21.0 °F 63% 30.25 in 10.0 mi Calm Calm - N/A   Clear
8:15 PM 32.5 °F - 21.7 °F 64% 30.25 in 10.0 mi Calm Calm - N/A   Clear
8:35 PM 31.5 °F - 21.4 °F 66% 30.26 in 10.0 mi Calm Calm - N/A   Clear
8:54 PM 29.3 °F - 21.9 °F 74% 30.25 in 10.0 mi Calm Calm - N/A   Clear
9:15 PM 29.5 °F - 22.1 °F 74% 30.25 in 10.0 mi Calm Calm - N/A   Clear
9:35 PM 27.0 °F - 22.3 °F 83% 30.26 in 10.0 mi Calm Calm - N/A   Clear
9:55 PM 26.6 °F - 21.2 °F 80% 30.26 in 10.0 mi Calm Calm - N/A   Clear
10:15 PM 26.8 °F - 21.0 °F 79% 30.25 in 10.0 mi Calm Calm - N/A   Clear
10:35 PM 27.7 °F - 21.4 °F 77% 30.25 in 10.0 mi Calm Calm - N/A   Clear
10:55 PM 28.6 °F - 22.1 °F 77% 30.25 in 10.0 mi Calm Calm - N/A   Clear
11:15 PM 30.2 °F - 22.3 °F 72% 30.25 in 10.0 mi Calm Calm - N/A   Clear
11:35 PM 27.0 °F - 21.7 °F 81% 30.25 in 10.0 mi Calm Calm - N/A   Clear
11:55 PM 27.0 °F - 22.3 °F 83% 30.26 in 10.0 mi Calm Calm - N/A   Clear